Location: eljas
(40.1958°N, 6.8661°W)
Time: 06:16:25
(UTC+02:00)

Amateur Radio Satellites - All Passes

Search period start: 27 May 2017 05:46
Search period end: 28 May 2017 05:46
Location: eljas, 40.1958°N, 6.8661°W

Satellite Date Start Highest point End Downlink Frequencies (MHz)
Time Altitude Azimuth
ISS 27 May 05:46:55 05:49:38 24° 226° (SW) 05:52:18 437.550
RS-15 27 May 05:50:28 06:02:02 46° 317° (NW) 06:13:49 29.354- 29.394
AO-85 27 May 05:53:34 05:57:28 38° 116° (ESE) 06:01:13 145.980
BEESAT 27 May 06:04:39 06:06:57 13° 269° (W) 06:09:15 436.000
AO-7 27 May 06:19:54 06:28:19 86° 108° (ESE) 06:36:42 .
CUBESAT XI-V 27 May 06:28:44 06:33:26 71° 259° (W) 06:38:09 437.345
KKS-1 27 May 06:34:05 06:38:29 68° 258° (WSW) 06:42:55 437.445
ITAMSAT 1 27 May 06:34:49 06:39:47 46° 289° (WNW) 06:44:45 435.822/435.867
BEESAT 2 27 May 06:35:53 06:37:09 11° 108° (ESE) 06:38:25 435.950
O/OREOS (USA 219) 27 May 06:37:10 06:41:14 31° 299° (WNW) 06:45:20 437.305
BEESAT 3 27 May 06:52:35 06:56:24 52° 118° (ESE) 07:00:19 437.485
DOVE 4 27 May 07:02:37 07:03:41 11° 91° (E) 07:04:44 437.250
STARS 27 May 07:04:21 07:08:41 75° 257° (WSW) 07:13:04 437.465
PCSat 27 May 07:25:57 07:30:19 25° 253° (WSW) 07:34:41 145.827
AO-85 27 May 07:34:51 07:37:57 20° 312° (NW) 07:40:59 145.980
XW-2D 27 May 07:44:51 07:47:30 18° 93° (E) 07:50:07 145.860 - 145.880
XW-2B 27 May 07:52:33 07:55:31 21° 94° (E) 07:58:27 145.730 - 145.750
STRAND 1 27 May 07:58:51 08:02:41 22° 64° (ENE) 08:06:31 437.568
NUDT-PHONESAT 27 May 08:03:03 08:06:00 21° 95° (E) 08:08:55 437.300
XW-2F 27 May 08:04:38 08:07:59 28° 96° (E) 08:11:18 145.980 - 146.000
XW-2C 27 May 08:05:49 08:09:17 31° 97° (E) 08:12:43 145.795 - 145.815
RS-15 27 May 08:09:54 08:18:56 22° 349° (N) 08:27:56 29.354- 29.394
BEESAT 2 27 May 08:10:26 08:14:22 60° 305° (NW) 08:18:21 435.950
KAITUO 1B 27 May 08:11:43 08:15:02 28° 96° (E) 08:18:18 145.475/437.950
AO-7 27 May 08:14:04 08:20:06 23° 307° (NW) 08:26:08 .
BEESAT 3 27 May 08:31:43 08:34:18 16° 316° (NW) 08:36:54 437.485
CUTE-I 27 May 08:31:44 08:36:57 52° 100° (E) 08:42:09 437.470
DOVE 4 27 May 08:37:36 08:41:42 57° 286° (WNW) 08:45:55 437.250
LilacSat-2 27 May 08:44:00 08:47:55 80° 283° (WNW) 08:51:46 437.200
SO-50 27 May 08:46:58 08:51:26 59° 55° (NE) 08:55:54 436.795
CUTE 1.7 + AOD 2 27 May 08:50:28 08:52:53 15° 91° (E) 08:55:15 437.475
M-CUBED/EXP-1 PRIME 27 May 09:09:38 09:13:09 27° 66° (ENE) 09:16:29 437.505
XW-2D 27 May 09:18:19 09:21:44 30° 289° (WNW) 09:25:06 145.860 - 145.880
XW-2B 27 May 09:26:26 09:29:39 25° 290° (WNW) 09:32:51 145.730 - 145.750
HO-68 27 May 09:28:42 09:35:35 46° 99° (E) 09:42:24 435.675
CUBEBUG 2 27 May 09:30:56 09:34:32 22° 94° (E) 09:38:12 437.445
STRAND 1 27 May 09:36:41 09:41:31 45° 261° (W) 09:46:26 437.568
NUDT-PHONESAT 27 May 09:36:45 09:39:49 24° 290° (WNW) 09:42:53 437.300
SEEDS 27 May 09:37:56 09:41:43 31° 96° (E) 09:45:27 437.485
XW-2F 27 May 09:39:09 09:41:54 19° 292° (WNW) 09:44:40 145.980 - 146.000
XW-2C 27 May 09:40:35 09:43:14 18° 292° (WNW) 09:45:53 145.795 - 145.815
UWE-3 27 May 09:40:58 09:44:01 17° 92° (E) 09:47:04 435.000/436.395/437.385
KAITUO 1B 27 May 09:46:07 09:48:50 19° 292° (WNW) 09:51:33 145.475/437.950
NO-84 27 May 09:46:11 09:50:18 40° 130° (SE) 09:54:21 435.350 FM
XW-2A 27 May 10:00:21 10:03:49 89° 281° (W) 10:07:16 145.665 - 145.685
Oscar 11 27 May 10:12:41 10:14:57 14° 91° (E) 10:17:14 .
CUTE-I 27 May 10:12:44 10:16:35 21° 297° (WNW) 10:20:28 437.470
CUTE 1.7 + AOD 2 27 May 10:24:51 10:28:56 45° 287° (WNW) 10:32:58 437.475
RS-15 27 May 10:27:17 10:37:21 28° 25° (NNE) 10:47:06 29.354- 29.394
SO-50 27 May 10:28:58 10:31:23 14° 251° (WSW) 10:33:49 436.795
AAUSAT CUBESAT 2 27 May 10:36:08 10:40:17 71° 102° (ESE) 10:44:22 437.432
AO-73 27 May 10:38:16 10:42:28 36° 97° (E) 10:46:40 145.935
PRISM 27 May 10:42:48 10:46:10 25° 69° (ENE) 10:49:33 437.425
UNISAT 6 27 May 10:43:24 10:46:30 20° 66° (ENE) 10:49:38 437.425
M-CUBED/EXP-1 PRIME 27 May 10:43:59 10:47:31 25° 258° (WSW) 10:50:52 437.505
ZACube-1 27 May 10:52:19 10:56:49 57° 100° (E) 11:01:20 437.345
CUBEBUG 2 27 May 11:07:00 11:11:11 36° 289° (WNW) 11:15:27 437.445
SEEDS 27 May 11:14:02 11:17:10 21° 293° (WNW) 11:20:19 437.485
UWE-3 27 May 11:16:16 11:20:39 46° 287° (WNW) 11:25:05 435.000/436.395/437.385
HO-68 27 May 11:16:44 11:23:05 35° 297° (WNW) 11:29:26 435.675
FO-29 27 May 11:22:21 11:27:22 54° 72° (ENE) 11:32:34 435.910
NO-84 27 May 11:24:00 11:27:59 33° 326° (NNW) 11:31:51 435.350 FM
TIGRISAT 27 May 11:46:41 11:50:56 89° 258° (WSW) 11:55:18 435.000
Oscar 11 27 May 11:47:09 11:51:21 49° 287° (WNW) 11:55:33 .
AIST 2D 27 May 12:00:52 12:02:43 14° 67° (ENE) 12:04:34 435.315
QB50P2 27 May 12:06:58 12:08:20 11° 63° (ENE) 12:09:42 145.880/145.840
AO-73 27 May 12:14:58 12:18:28 22° 293° (WNW) 12:21:58 145.935
PRISM 27 May 12:17:54 12:21:21 25° 264° (W) 12:24:49 437.425
UNISAT 6 27 May 12:19:02 12:22:57 35° 263° (W) 12:26:57 437.425
EO-88 27 May 12:21:53 12:25:35 84° 99° (E) 12:29:15 145.990 - 145.960
DELFI C3 27 May 12:25:55 12:29:47 61° 286° (WNW) 12:33:39 145.870
ZACube-1 27 May 12:30:04 12:32:36 15° 296° (WNW) 12:35:09 437.345
RS-15 27 May 12:40:22 12:52:37 71° 54° (NE) 13:04:13 29.354- 29.394
EO-79 27 May 12:41:35 12:45:00 25° 69° (ENE) 12:48:27 145.935-145.965
LO-87 27 May 13:03:38 13:06:50 31° 98° (E) 13:10:01 145.935 - 145.965
NO-84 27 May 13:04:52 13:06:37 12° 346° (NNW) 13:08:20 435.350 FM
YUBILEINY 27 May 13:06:20 13:14:08 33° 71° (ENE) 13:21:52 435.215
FO-29 27 May 13:09:51 13:12:57 16° 269° (W) 13:16:06 435.910
NANOSAT C BR1 27 May 13:25:37 13:29:46 73° 75° (ENE) 13:33:56 145.865
POLYITAN 1 27 May 13:30:39 13:34:50 88° 250° (WSW) 13:39:04 437.675
AIST 2D 27 May 13:32:24 13:35:36 33° 263° (W) 13:38:52 435.315
Oscar 19 27 May 13:34:25 13:36:19 12° 59° (ENE) 13:38:13 437.125/150
DUCHIFAT 1 27 May 13:36:00 13:40:09 85° 79° (E) 13:44:21 145.980
QB50P2 27 May 13:39:25 13:43:34 64° 259° (WSW) 13:47:46 145.880/145.840
ESTCUBE 1 27 May 13:42:52 13:47:17 52° 100° (E) 13:51:39 437.505/2401.250
BUGSAT 1 27 May 13:52:22 13:56:02 37° 72° (ENE) 13:59:45 437.445
50 SAT 27 May 14:15:05 14:16:03 11° 92° (E) 14:17:01 437.505
EO-79 27 May 14:17:10 14:20:40 26° 264° (W) 14:24:13 145.935-145.965
AO-85 27 May 14:24:47 14:28:18 28° 51° (NE) 14:31:59 145.980
SPROUT 27 May 14:25:58 14:30:00 38° 98° (E) 14:34:00 437.525
VELOX 1 27 May 14:36:09 14:40:25 49° 100° (E) 14:44:39 145.980
LO-87 27 May 14:37:54 14:40:00 15° 292° (WNW) 14:42:06 145.935 - 145.965
NO-84 27 May 14:45:06 14:45:48 10° 8° (N) 14:46:28 435.350 FM
Gurwin Techsat 1B 27 May 14:52:44 14:57:36 39° 69° (ENE) 15:02:30 435.225
RS-15 27 May 14:53:57 15:04:06 34° 256° (WSW) 15:13:52 29.354- 29.394
UKube-1 27 May 15:01:24 15:04:42 21° 95° (E) 15:07:58 .
YUBILEINY 27 May 15:02:46 15:11:15 54° 270° (W) 15:19:43 435.215
O/OREOS (USA 219) 27 May 15:08:01 15:12:21 44° 64° (ENE) 15:16:38 437.305
Oscar 19 27 May 15:09:38 15:14:51 89° 254° (WSW) 15:20:05 437.125/150
DX 1 27 May 15:09:48 15:13:52 38° 98° (E) 15:17:54 434.975-435.025
BEESAT 3 27 May 15:10:01 15:13:29 27° 49° (NE) 15:16:53 437.485
ESTCUBE 1 27 May 15:21:00 15:23:38 15° 296° (WNW) 15:26:14 437.505/2401.250
AO-7 27 May 15:28:01 15:34:22 25° 54° (NE) 15:40:43 .
BUGSAT 1 27 May 15:29:06 15:31:33 16° 267° (W) 15:34:00 437.445
50 SAT 27 May 15:45:57 15:49:05 36° 287° (WNW) 15:52:13 437.505
SPROUT 27 May 16:02:41 16:05:36 18° 294° (WNW) 16:08:31 437.525
AO-85 27 May 16:05:09 16:08:36 26° 246° (WSW) 16:12:13 145.980
ITAMSAT 1 27 May 16:13:29 16:17:59 31° 67° (ENE) 16:22:29 435.822/435.867
VELOX 1 27 May 16:13:51 16:16:26 16° 296° (WNW) 16:19:02 145.980
NO-84 27 May 16:21:26 16:24:37 24° 29° (NNE) 16:27:35 435.350 FM
BEESAT 27 May 16:25:55 16:28:53 16° 92° (E) 16:31:50 436.000
BEESAT 2 27 May 16:28:27 16:32:31 64° 57° (ENE) 16:36:30 435.950
Gurwin Techsat 1B 27 May 16:33:15 16:37:37 26° 265° (W) 16:42:01 435.225
UKube-1 27 May 16:36:55 16:40:45 32° 290° (WNW) 16:44:34 .
DX 1 27 May 16:46:45 16:49:45 19° 294° (WNW) 16:52:45 434.975-435.025
BEESAT 3 27 May 16:47:35 16:51:00 27° 247° (WSW) 16:54:22 437.485
O/OREOS (USA 219) 27 May 16:48:29 16:51:21 17° 260° (W) 16:54:12 437.305
AO-7 27 May 17:18:02 17:26:18 77° 253° (WSW) 17:34:39 .
ITUPSAT 1 27 May 17:29:06 17:33:56 72° 103° (ESE) 17:38:43 437.325
MOZHAYETS 4 27 May 17:37:49 17:42:22 52° 100° (E) 17:46:53
ITAMSAT 1 27 May 17:52:50 17:57:22 31° 263° (W) 18:01:57 435.822/435.867
NO-84 27 May 17:58:49 18:02:22 45° 229° (SW) 18:05:36 435.350 FM
BEESAT 27 May 18:02:17 18:06:56 52° 288° (WNW) 18:11:34 436.000
DOVE 4 27 May 18:07:36 18:09:27 12° 64° (ENE) 18:11:15 437.250
BEESAT 2 27 May 18:08:41 18:09:42 11° 252° (WSW) 18:10:42 435.950
CUTE-I 27 May 18:18:00 18:19:06 11° 57° (ENE) 18:20:13 437.470
KKS-1 27 May 18:26:00 18:29:33 23° 95° (E) 18:33:04 437.445
CUBESAT XI-V 27 May 18:26:10 18:30:14 29° 96° (E) 18:34:16 437.345
XW-2B 27 May 18:35:41 18:36:14 10° 64° (ENE) 18:36:47 145.730 - 145.750
XW-2F 27 May 18:46:12 18:48:08 14° 66° (ENE) 18:50:04 145.980 - 146.000
XW-2C 27 May 18:47:36 18:49:48 15° 66° (ENE) 18:52:00 145.795 - 145.815
KAITUO 1B 27 May 18:52:31 18:54:19 13° 66° (ENE) 18:56:08 145.475/437.950
STARS 27 May 18:54:52 18:58:06 20° 94° (E) 19:01:19 437.465
ITUPSAT 1 27 May 19:08:53 19:11:08 13° 299° (WNW) 19:13:22 437.325
MOZHAYETS 4 27 May 19:16:12 19:19:05 16° 296° (WNW) 19:21:57
AO-7 27 May 19:16:37 19:20:18 13° 271° (W) 19:23:59 .
LilacSat-2 27 May 19:25:00 19:28:38 43° 73° (ENE) 19:32:20 437.200
DOVE 4 27 May 19:42:05 19:46:41 64° 259° (W) 19:51:02 437.250
CUTE 1.7 + AOD 2 27 May 19:44:17 19:45:13 11° 62° (ENE) 19:46:09 437.475
CUTE-I 27 May 19:52:57 19:58:15 80° 75° (ENE) 20:03:35 437.470
HO-68 27 May 19:57:05 20:03:16 33° 62° (ENE) 20:09:29 435.675
XW-2D 27 May 19:58:07 20:01:54 71° 259° (WSW) 20:05:44 145.860 - 145.880
KKS-1 27 May 20:02:11 20:06:06 31° 291° (WNW) 20:10:01 437.445
CUBESAT XI-V 27 May 20:03:37 20:07:30 27° 292° (WNW) 20:11:21 437.345
XW-2B 27 May 20:06:08 20:09:53 58° 260° (W) 20:13:41 145.730 - 145.750
NUDT-PHONESAT 27 May 20:14:27 20:18:07 58° 260° (W) 20:21:49 437.300
XW-2F 27 May 20:18:17 20:21:53 41° 262° (W) 20:25:32 145.980 - 146.000
XW-2C 27 May 20:20:06 20:23:39 37° 262° (W) 20:27:15 145.795 - 145.815
PCSat 27 May 20:22:58 20:28:05 45° 112° (ESE) 20:33:14 145.827
KAITUO 1B 27 May 20:24:20 20:27:56 42° 261° (W) 20:31:34 145.475/437.950
SEEDS 27 May 20:29:16 20:32:29 21° 68° (ENE) 20:35:44 437.485
CUBEBUG 2 27 May 20:29:32 20:32:04 16° 65° (ENE) 20:34:38 437.445
STARS 27 May 20:30:31 20:34:31 35° 290° (WNW) 20:38:31 437.465
XW-2A 27 May 20:31:22 20:34:09 25° 71° (ENE) 20:36:57 145.665 - 145.685
UWE-3 27 May 20:38:55 20:40:36 12° 63° (ENE) 20:42:17 435.000/436.395/437.385
ISS 27 May 20:51:04 20:52:56 14° 130° (SE) 20:54:48 437.550
LilacSat-2 27 May 21:01:29 21:03:09 12° 269° (W) 21:04:48 437.200
Oscar 11 27 May 21:08:24 21:09:30 11° 62° (ENE) 21:10:37 .
CUTE 1.7 + AOD 2 27 May 21:16:09 21:20:25 72° 258° (WSW) 21:24:44 437.475
AAUSAT CUBESAT 2 27 May 21:25:19 21:29:14 41° 73° (ENE) 21:33:11 437.432
AO-73 27 May 21:33:30 21:36:56 25° 68° (ENE) 21:40:27 145.935
CUTE-I 27 May 21:37:01 21:38:53 12° 271° (W) 21:40:46 437.470
HO-68 27 May 21:43:49 21:50:42 49° 260° (W) 21:57:39 435.675
Tancredo 1 27 May 21:45:07 21:48:12 88° 121° (ESE) 21:51:17 437.200
STRAND 1 27 May 21:47:18 21:52:26 65° 102° (ESE) 21:57:32 437.568
ZACube-1 27 May 21:47:31 21:51:25 38° 72° (ENE) 21:55:26 437.345
SEEDS 27 May 22:04:10 22:07:58 31° 263° (W) 22:11:48 437.485
CUBEBUG 2 27 May 22:04:22 22:08:18 42° 262° (W) 22:12:21 437.445
XW-2A 27 May 22:04:46 22:06:54 16° 266° (W) 22:09:02 145.665 - 145.685
PCSat 27 May 22:07:03 22:11:39 27° 310° (NW) 22:16:16 145.827
UWE-3 27 May 22:12:22 22:16:29 59° 260° (W) 22:20:44 435.000/436.395/437.385
M-CUBED/EXP-1 PRIME 27 May 22:23:27 22:25:22 15° 99° (E) 22:27:17 437.505
ISS 27 May 22:25:49 22:29:05 60° 326° (NW) 22:32:21 437.550
Oscar 11 27 May 22:40:41 22:45:00 72° 257° (WSW) 22:49:23 .
EO-88 27 May 22:59:05 23:02:20 31° 71° (ENE) 23:05:36 145.990 - 145.960
SO-50 27 May 23:01:30 23:04:58 21° 111° (ESE) 23:08:25 436.795
AAUSAT CUBESAT 2 27 May 23:02:21 23:04:52 15° 268° (W) 23:07:23 437.432
AO-73 27 May 23:09:28 23:13:03 27° 265° (W) 23:16:44 145.935
DELFI C3 27 May 23:10:07 23:14:04 65° 76° (ENE) 23:18:02 145.870
Tancredo 1 27 May 23:22:12 23:24:19 17° 340° (NNW) 23:26:25 437.200
ZACube-1 27 May 23:25:05 23:27:52 17° 268° (W) 23:30:42 437.345
STRAND 1 27 May 23:27:58 23:31:03 16° 298° (WNW) 23:34:08 437.568
TIGRISAT 27 May 23:39:04 23:42:33 21° 94° (E) 23:46:02 435.000
LO-87 27 May 23:40:44 23:42:17 12° 66° (ENE) 23:43:49 145.935 - 145.965
M-CUBED/EXP-1 PRIME 27 May 23:57:09 23:59:54 25° 294° (WNW) 00:02:37 437.505
PRISM 27 May 23:58:57 00:02:48 41° 99° (E) 00:06:37 437.425
ISS 28 May 00:04:02 00:06:07 15° 344° (NNW) 00:08:11 437.550
UNISAT 6 28 May 00:10:21 00:14:50 48° 100° (E) 00:19:20 437.425
FO-29 28 May 00:14:32 00:21:00 58° 101° (E) 00:28:13 435.910
EO-88 28 May 00:33:49 00:36:04 16° 267° (W) 00:38:20 145.990 - 145.960
SO-50 28 May 00:40:49 00:45:09 42° 308° (NW) 00:49:30 436.795
ESTCUBE 1 28 May 00:41:31 00:45:49 44° 72° (ENE) 00:50:09 437.505/2401.250
AIST 2D 28 May 00:58:29 01:00:53 17° 94° (E) 01:03:17 435.315
Tancredo 1 28 May 01:00:54 01:01:03 10° 0° (N) 01:01:13 437.200
LO-87 28 May 01:12:02 01:15:21 38° 262° (W) 01:18:41 145.935 - 145.965
NANOSAT C BR1 28 May 01:12:19 01:13:59 12° 91° (E) 01:15:40 145.865
TIGRISAT 28 May 01:15:02 01:19:18 38° 289° (WNW) 01:23:37 435.000
POLYITAN 1 28 May 01:17:08 01:19:43 16° 92° (E) 01:22:19 437.675
SPROUT 28 May 01:18:52 01:22:27 27° 69° (ENE) 01:26:02 437.525
DUCHIFAT 1 28 May 01:21:53 01:24:08 14° 92° (E) 01:26:23 145.980
QB50P2 28 May 01:25:18 01:28:34 21° 94° (E) 01:31:49 145.880/145.840
VELOX 1 28 May 01:32:37 01:36:44 40° 71° (ENE) 01:40:52 145.980
PRISM 28 May 01:35:17 01:37:44 16° 295° (WNW) 01:40:11 437.425
ISS 28 May 01:42:24 01:43:41 12° 5° (N) 01:44:58 437.550
UNISAT 6 28 May 01:48:06 01:51:09 18° 295° (WNW) 01:54:14 437.425
UKube-1 28 May 01:55:44 01:58:37 18° 65° (ENE) 02:01:31 .
FO-29 28 May 02:00:28 02:05:42 27° 295° (WNW) 02:11:25 435.910
EO-79 28 May 02:01:21 02:05:30 49° 100° (E) 02:09:38 145.935-145.965
DX 1 28 May 02:04:41 02:08:33 32° 70° (ENE) 02:12:25 434.975-435.025
YUBILEINY 28 May 02:06:46 02:14:32 38° 86° (E) 02:22:23 435.215
50 SAT 28 May 02:16:59 02:20:24 64° 76° (ENE) 02:23:50 437.505
ESTCUBE 1 28 May 02:19:51 02:22:49 17° 268° (W) 02:25:47 437.505/2401.250
AIST 2D 28 May 02:31:04 02:34:06 26° 289° (WNW) 02:37:06 435.315
Tancredo 1 28 May 02:35:37 02:37:47 17° 21° (NNE) 02:39:58 437.200
NANOSAT C BR1 28 May 02:45:52 02:50:01 55° 286° (WNW) 02:54:10 145.865
POLYITAN 1 28 May 02:51:38 02:55:41 43° 288° (WNW) 02:59:44 437.675
SPROUT 28 May 02:54:52 02:58:18 24° 265° (W) 03:01:45 437.525
DUCHIFAT 1 28 May 02:55:57 03:00:02 47° 287° (WNW) 03:04:07 145.980
QB50P2 28 May 03:00:36 03:04:23 32° 290° (WNW) 03:08:10 145.880/145.840
RS-15 28 May 03:02:01 03:13:14 48° 109° (ESE) 03:24:43 29.354- 29.394
BUGSAT 1 28 May 03:09:06 03:13:15 72° 103° (ESE) 03:17:25 437.445
VELOX 1 28 May 03:10:20 03:13:19 18° 267° (W) 03:16:19 145.980
Gurwin Techsat 1B 28 May 03:10:37 03:13:43 16° 91° (E) 03:16:49 435.225
ISS 28 May 03:18:18 03:21:05 24° 25° (NNE) 03:23:51 437.550
Oscar 19 28 May 03:22:08 03:26:47 33° 97° (E) 03:31:22 437.125/150
UKube-1 28 May 03:30:16 03:34:19 40° 261° (W) 03:38:24 .
BEESAT 28 May 03:31:52 03:35:07 19° 64° (ENE) 03:38:23 436.000
EO-79 28 May 03:38:29 03:40:50 15° 295° (WNW) 03:43:12 145.935-145.965
DX 1 28 May 03:41:22 03:44:45 22° 265° (W) 03:48:08 434.975-435.025
YUBILEINY 28 May 04:02:53 04:11:07 46° 285° (WNW) 04:19:30 435.215
Tancredo 1 28 May 04:10:48 04:13:52 80° 220° (SW) 04:16:55 437.200
ITAMSAT 1 28 May 04:29:26 04:30:26 10° 89° (E) 04:31:26 435.822/435.867
ITUPSAT 1 28 May 04:35:01 04:39:46 78° 75° (ENE) 04:44:34 437.325
MOZHAYETS 4 28 May 04:38:51 04:43:15 45° 72° (ENE) 04:47:40
BUGSAT 1 28 May 04:47:49 04:48:01 10° 298° (WNW) 04:48:13 437.445
Gurwin Techsat 1B 28 May 04:48:49 04:54:05 63° 287° (WNW) 04:59:19 435.225
ISS 28 May 04:54:32 04:57:43 46° 222° (SW) 05:00:52 437.550
Oscar 19 28 May 05:01:35 05:05:59 29° 293° (WNW) 05:10:21 437.125/150
BEESAT 28 May 05:07:56 05:12:31 47° 260° (W) 05:17:08 436.000
PCSat 28 May 05:11:19 05:16:13 33° 52° (NE) 05:21:06 145.827
RS-15 28 May 05:13:41 05:25:34 56° 312° (NW) 05:37:44 29.354- 29.394
O/OREOS (USA 219) 28 May 05:19:20 05:23:50 58° 108° (ESE) 05:28:21 437.305
AO-7 28 May 05:20:31 05:28:09 38° 98° (E) 05:35:45 .
KKS-1 28 May 05:23:46 05:27:04 21° 66° (ENE) 05:30:21 437.445
CUBESAT XI-V 28 May 05:28:48 05:32:47 28° 68° (ENE) 05:36:47 437.345
